Retour au catalogue

STARLINK-37190

ActifCommunicationsSSO
NORAD 68396·PAYLOAD·🇺🇸 United States

Lancé Mar 26, 2026 depuis Vandenberg Space Force Base

Loading…

Prochains Passages (prochaines 24 heures)

TLE

FraisSource: CelesTrak SupGP

Époque: Sep 15, 2026, 04:02 UTC

1 68396C 26063S   26258.16854167  .00000714  00000+0  22170-4 0  2585
2 68396  97.2854  39.1666 0001419  83.9138 340.9545 15.33431537    13

Suivez STARLINK-37190 en temps réel avec AllMySat

Download on the App Store